[[{"header":{"parameterUnit":"m.s-1","parameterCategory":1,"la1":30.2991,"la2":30.254,"lo1":-89.0895,"lo2":-89.0444,"dy":0.0017,"dx":0.0017,"nx":28,"ny":28,"refTime":"2025-07-29T09:00:00:Z","depth":0,"parameterNumber":2,"parameterNumberName":"U-component_of_WINDS"},"data":[0,0,0,0,0,0,0,0,0,0,0,0,0,0,0,0,0,0,0,0,0,0,0,0,0,0,0,0,0,0,0,0,0,0,0,0,0,0,0,0,0,0,0,0,0,0,0,0,0,0,0,0,0,0,0,0,0,0,2.6029,2.6029,0,2.607,2.6071,2.6071,2.6027,2.6025,2.6024,2.6022,2.6065,2.6068,2.607,0,0,0,0,0,0,0,0,0,0,0,0,0,2.5913,2.5915,2.6029,2.6029,2.603,2.607,2.6071,2.6071,2.6027,2.6025,2.6023,2.6021,2.6064,2.6067,2.6071,0,0,0,0,0,0,0,0,0,0,0,0,0,2.596,2.5916,2.6029,2.6013,2.6012,2.607,2.6071,2.6072,2.6028,2.6025,2.6023,2.602,2.6063,2.6067,2.6071,2.6147,0,0,2.6084,2.6085,0,0,0,0,0,0,0,0,2.5957,2.5964,2.6015,2.6014,2.6013,2.6041,2.6046,2.6097,2.6029,2.6022,2.6022,2.6019,2.6059,2.6063,2.6077,2.6149,2.6151,2.6084,2.6086,2.6088,2.6089,0,0,0,0,0,0,0,2.5954,2.5962,2.6045,2.6015,2.6015,2.6004,2.6008,2.6055,2.6054,2.6022,2.6019,2.6025,2.6058,2.6073,2.6077,2.6152,2.6084,2.6087,2.609,2.6092,2.6291,2.6293,0,0,0,0,0,0,2.5952,2.596,2.6044,2.6047,2.5978,2.6008,2.6012,2.6035,2.6054,2.6054,2.6027,2.6022,2.6067,2.6073,2.6079,2.617,2.6088,2.6092,2.6094,2.6288,2.6291,2.6294,0,0,0,0,0,0,2.595,2.596,2.6042,2.6002,2.6012,2.6013,2.6038,2.6037,2.6051,2.6057,2.6057,2.6042,2.6065,2.6073,2.6131,2.6171,2.6094,2.6098,2.6285,2.6289,2.6293,2.6353,0,0,0,0,0,0,2.5947,2.596,2.5988,2.6003,2.6014,2.6094,2.6041,2.6039,2.6059,2.6053,2.6071,2.6072,2.6064,2.6125,2.6135,2.6175,2.6101,2.6281,2.6287,2.6292,2.6348,2.6359,2.6369,0,0,0,0,0,2.5943,2.6003,2.599,2.6,2.605,2.6096,2.6102,2.6092,2.6062,2.6091,2.6095,2.6071,2.6165,2.6131,2.6142,2.6184,2.6278,2.6285,2.6291,2.6343,2.6357,2.6368,0,0,0,0,0,0,2.5993,2.6005,2.599,2.6057,2.6076,2.6088,2.6124,2.6107,2.6134,2.6128,2.6114,2.6119,2.6181,2.6188,2.615,2.626,2.6217,2.6226,2.6253,2.6266,2.6276,2.6273,2.6104,0,0,0,0,0,2.6012,2.6048,2.6057,2.6115,2.6125,2.6124,2.6143,2.6134,2.6152,2.616,2.6168,2.6188,2.6221,2.6244,2.6275,2.6349,2.6352,2.6383,2.6394,2.6402,2.641,2.645,2.6464,2.6315,2.6315,2.6315,0,0,2.6051,2.6062,2.6086,2.6125,2.6139,2.6177,2.613,2.6172,2.6201,2.6166,2.6222,2.6229,2.6249,2.6316,2.6345,2.6324,2.6452,2.641,2.6417,2.642,2.6458,2.6473,2.6485,2.632,2.6319,2.6318,0,0,2.6142,2.6154,2.6204,2.6219,2.624,2.6238,2.6251,2.6266,2.627,2.6325,2.6301,2.6334,2.6393,2.6409,2.6425,2.6524,2.6504,2.6535,2.659,2.6629,2.6641,2.6651,2.6687,2.67,2.6543,2.6543,2.6543,0,2.6188,2.6244,2.6232,2.6277,2.6295,2.6267,2.6318,2.6333,2.6363,2.6377,2.6353,2.6426,2.6438,2.6508,2.6533,2.6546,2.6561,2.6532,2.664,2.6651,2.666,2.6694,2.6708,2.6546,2.6546,2.6546,2.6545,0,2.63,2.634,2.6378,2.6408,2.6431,2.6479,2.6475,2.65,2.6489,2.6491,2.6548,2.6562,2.6596,2.6612,2.6602,2.6681,2.6668,2.6642,2.6599,2.6678,2.671,2.6723,2.6552,2.655,2.6549,2.6548,0,0,2.6422,2.6447,2.6461,2.6475,2.6497,2.6527,2.6574,2.6608,2.663,2.6652,2.6692,2.6743,2.672,2.6738,2.6729,2.6764,2.6843,2.6735,2.6735,2.6755,2.6933,2.6952,2.6967,2.683,2.6832,2.6834,2.6931,0,2.6514,2.6595,2.6587,2.6664,2.6701,2.6675,2.6716,2.6735,2.6738,2.677,2.6774,2.681,2.6777,2.6788,2.6821,2.6826,2.6879,2.6819,2.6867,2.6869,2.6862,2.6983,2.7003,2.7094,2.6943,2.6945,2.6947,0,2.6632,2.6659,2.674,2.6757,2.6772,2.6809,2.684,2.6871,2.6892,2.6892,2.6913,2.6899,2.6947,2.6903,2.697,2.693,2.6949,2.6955,2.6958,2.6962,2.6912,2.6991,2.7122,2.7136,2.6966,2.6965,2.6963,0,2.6714,2.677,2.6826,2.6839,2.6861,2.6887,2.6898,2.6916,2.6937,2.6964,2.6978,2.7011,2.7029,2.7055,2.705,2.7018,2.7118,2.7074,2.712,2.7121,2.7142,2.7141,2.7279,2.7155,2.7154,2.7154,2.7154,0,2.6817,2.6868,2.6863,2.6898,2.6955,2.6945,2.7001,2.7008,2.7025,2.7061,2.7041,2.7075,2.7067,2.7102,2.7099,2.7155,2.7163,2.7165,2.7163,2.7166,2.7166,2.7178,2.7172,2.7158,2.7157,2.7156,2.7156,0,2.6917,2.6917,2.6976,2.6992,2.6997,2.7039,2.7052,2.7085,2.7088,2.7134,2.7144,2.7147,2.7187,2.7185,2.723,2.7228,2.7297,2.7288,2.729,2.7288,2.7335,2.7331,2.7485,2.7506,2.7368,2.737,2.7371,0,2.6983,2.7022,2.7042,2.7065,2.7077,2.7114,2.7136,2.7128,2.7152,2.7179,2.7209,2.7247,2.7277,2.7342,2.7349,2.7383,2.7375,2.7427,2.738,2.7382,2.7376,2.7374,2.7378,2.7436,2.7438,2.7439,2.744,0,2.71,2.7098,2.713,2.7163,2.719,2.7215,2.7238,2.7258,2.7253,2.7281,2.7322,2.7345,2.7391,2.7429,2.7463,2.7474,2.7457,2.7455,2.7467,2.7471,2.7471,2.7472,2.7315,2.7451,2.745,2.7449,2.7449,2.7448,2.7186,2.7219,2.7239,2.7276,2.7293,2.7315,2.7347,2.7354,2.7387,2.7424,2.7418,2.7464,2.7485,2.7528,2.7542,2.7578,2.756,2.7578,2.7583,2.7587,2.7593,2.7465,2.7584,2.7584,2.7584,2.7584,2.7583,0,2.7302,2.7314,2.7348,2.7381,2.7411,2.7392,2.7417,2.7443,2.7484,2.7505,2.7535,2.7582,2.7619,2.763,2.7666,2.7693,2.7686,2.7702,2.77,2.7703,2.7607,2.7593,2.7707,2.7707,2.7707,2.7707,2.7707,2.7707,2.7366,2.7422,2.7423,2.7488,2.7499,2.7543,2.7559,2.758,2.7597,2.7651,2.7682,2.7688,2.7706,2.7743,2.7777,2.7779,2.7793,2.7813,2.7812,2.7722,2.771,2.7698,2.7684,2.7816,2.7817,2.7906,2.7906,2.7907]},{"header":{"parameterUnit":"m.s-1","parameterCategory":1,"la1":30.2991,"la2":30.254,"lo1":-89.0895,"lo2":-89.0444,"dy":0.0017,"dx":0.0017,"nx":28,"ny":28,"refTime":"2025-07-29T09:00:00:Z","depth":0,"parameterNumber":3,"parameterNumberName":"V-component_of_WINDS"},"data":[0,0,0,0,0,0,0,0,0,0,0,0,0,0,0,0,0,0,0,0,0,0,0,0,0,0,0,0,0,0,0,0,0,0,0,0,0,0,0,0,0,0,0,0,0,0,0,0,0,0,0,0,0,0,0,0,0,0,-2.7397,-2.7398,0,-2.7483,-2.7484,-2.7485,-2.7477,-2.7476,-2.7475,-2.7473,-2.7559,-2.7563,-2.7566,0,0,0,0,0,0,0,0,0,0,0,0,0,-2.7223,-2.7226,-2.7397,-2.7398,-2.7399,-2.7483,-2.7484,-2.7486,-2.7478,-2.7476,-2.7474,-2.7473,-2.7558,-2.7562,-2.7567,0,0,0,0,0,0,0,0,0,0,0,0,0,-2.7303,-2.7227,-2.7397,-2.7405,-2.7407,-2.7483,-2.7484,-2.7486,-2.7478,-2.7476,-2.7474,-2.7472,-2.7557,-2.7562,-2.7567,-2.764,0,0,-2.7583,-2.7586,0,0,0,0,0,0,0,0,-2.7298,-2.7309,-2.7403,-2.7405,-2.7407,-2.7468,-2.7455,-2.7537,-2.7478,-2.7451,-2.7473,-2.7471,-2.753,-2.7538,-2.7558,-2.7644,-2.7647,-2.7584,-2.7587,-2.7589,-2.7591,0,0,0,0,0,0,0,-2.7293,-2.7305,-2.7431,-2.7404,-2.7407,-2.7404,-2.7413,-2.747,-2.75,-2.7453,-2.7453,-2.7463,-2.7531,-2.7553,-2.756,-2.7649,-2.7584,-2.7588,-2.7592,-2.7594,-2.7799,-2.7801,0,0,0,0,0,0,-2.7286,-2.7301,-2.7428,-2.7433,-2.7347,-2.7409,-2.7419,-2.745,-2.75,-2.7506,-2.7465,-2.7462,-2.7545,-2.7554,-2.7563,-2.7652,-2.7589,-2.7594,-2.7597,-2.7797,-2.7799,-2.7802,0,0,0,0,0,0,-2.7282,-2.7297,-2.7425,-2.7367,-2.7383,-2.7414,-2.7449,-2.7453,-2.7475,-2.7509,-2.7514,-2.7482,-2.7544,-2.7556,-2.7621,-2.7655,-2.7597,-2.7601,-2.7794,-2.7798,-2.7801,-2.783,0,0,0,0,0,0,-2.7277,-2.7296,-2.7324,-2.7368,-2.7386,-2.7482,-2.7451,-2.7456,-2.7484,-2.7482,-2.7526,-2.7532,-2.7543,-2.7613,-2.7626,-2.7661,-2.7606,-2.7791,-2.7796,-2.78,-2.7826,-2.7834,-2.7841,0,0,0,0,0,-2.7271,-2.7328,-2.7325,-2.7341,-2.7422,-2.7484,-2.7494,-2.7507,-2.7487,-2.7515,-2.7537,-2.753,-2.7649,-2.762,-2.7635,-2.7671,-2.7789,-2.7794,-2.7799,-2.7823,-2.7832,-2.784,0,0,0,0,0,0,-2.7286,-2.7334,-2.7331,-2.7405,-2.744,-2.7482,-2.7518,-2.7517,-2.7558,-2.7554,-2.7567,-2.7577,-2.7644,-2.7664,-2.7631,-2.7745,-2.7716,-2.7725,-2.7729,-2.7739,-2.7746,-2.7739,-2.761,0,0,0,0,0,-2.7298,-2.7344,-2.7383,-2.7444,-2.7462,-2.7487,-2.7515,-2.7522,-2.7559,-2.7573,-2.76,-2.7636,-2.7681,-2.7711,-2.7755,-2.7829,-2.7839,-2.7862,-2.7869,-2.7875,-2.7882,-2.7924,-2.7934,-2.7819,-2.7819,-2.7819,0,0,-2.7322,-2.7354,-2.7383,-2.7448,-2.7476,-2.7524,-2.75,-2.7551,-2.7587,-2.7581,-2.7645,-2.7666,-2.7707,-2.7777,-2.781,-2.7796,-2.7916,-2.7881,-2.7886,-2.789,-2.793,-2.7941,-2.7951,-2.7822,-2.7822,-2.7821,0,0,-2.7392,-2.7421,-2.7475,-2.7505,-2.7549,-2.7565,-2.7579,-2.7621,-2.7635,-2.77,-2.7697,-2.7739,-2.7817,-2.7847,-2.7872,-2.7954,-2.7949,-2.7968,-2.8006,-2.8047,-2.8056,-2.8064,-2.8094,-2.8105,-2.7975,-2.7975,-2.7975,0,-2.7417,-2.749,-2.7503,-2.7556,-2.7585,-2.7583,-2.7638,-2.7666,-2.7721,-2.7741,-2.7725,-2.7824,-2.7851,-2.7929,-2.795,-2.797,-2.7985,-2.7963,-2.8054,-2.8062,-2.807,-2.8099,-2.811,-2.7977,-2.7977,-2.7977,-2.7976,0,-2.7519,-2.7569,-2.7608,-2.7663,-2.7696,-2.7749,-2.7771,-2.7803,-2.7807,-2.7825,-2.7891,-2.7924,-2.7975,-2.7994,-2.7998,-2.8073,-2.8063,-2.8051,-2.8022,-2.8082,-2.811,-2.8121,-2.798,-2.7979,-2.7979,-2.7978,0,0,-2.76,-2.7663,-2.7677,-2.7703,-2.7752,-2.7791,-2.7844,-2.7895,-2.7922,-2.7961,-2.8006,-2.8072,-2.8061,-2.809,-2.8097,-2.8133,-2.8198,-2.8116,-2.8117,-2.8131,-2.8283,-2.8293,-2.8306,-2.8195,-2.8197,-2.8199,-2.828,0,-2.7675,-2.7771,-2.7785,-2.7869,-2.7916,-2.7916,-2.7963,-2.7997,-2.8016,-2.8058,-2.8078,-2.8126,-2.8107,-2.8125,-2.816,-2.8182,-2.8228,-2.8176,-2.8237,-2.8239,-2.8227,-2.832,-2.833,-2.8405,-2.8291,-2.8293,-2.8294,0,-2.7776,-2.7819,-2.7908,-2.7952,-2.7972,-2.8014,-2.8062,-2.8102,-2.8142,-2.8153,-2.8186,-2.8189,-2.8245,-2.8214,-2.8291,-2.8255,-2.828,-2.8295,-2.8299,-2.8305,-2.827,-2.8329,-2.843,-2.8441,-2.8311,-2.8309,-2.8308,0,-2.7827,-2.7907,-2.7971,-2.7993,-2.8045,-2.8075,-2.8098,-2.8136,-2.8166,-2.8208,-2.8227,-2.8275,-2.8301,-2.8337,-2.8353,-2.833,-2.8429,-2.84,-2.844,-2.844,-2.8461,-2.846,-2.8568,-2.8477,-2.8477,-2.8476,-2.8476,0,-2.791,-2.7965,-2.7995,-2.8034,-2.8096,-2.8112,-2.8172,-2.8194,-2.8228,-2.8271,-2.8273,-2.8314,-2.8333,-2.8376,-2.8389,-2.8451,-2.8462,-2.8473,-2.8476,-2.8473,-2.8472,-2.849,-2.8486,-2.8479,-2.8479,-2.8478,-2.8478,0,-2.7978,-2.8,-2.807,-2.8114,-2.8127,-2.817,-2.8208,-2.8246,-2.8265,-2.832,-2.8334,-2.8363,-2.8415,-2.8434,-2.8497,-2.8505,-2.8577,-2.8575,-2.8564,-2.8565,-2.8605,-2.8601,-2.8729,-2.8747,-2.8643,-2.8644,-2.8645,0,-2.8029,-2.8072,-2.8121,-2.8151,-2.8176,-2.8223,-2.8255,-2.8272,-2.8304,-2.8353,-2.8386,-2.8437,-2.848,-2.8562,-2.8588,-2.8636,-2.8636,-2.8678,-2.8643,-2.864,-2.8638,-2.8635,-2.864,-2.8684,-2.8685,-2.8686,-2.8686,0,-2.8119,-2.8128,-2.8174,-2.8223,-2.8261,-2.83,-2.8339,-2.8363,-2.8386,-2.8422,-2.8476,-2.8509,-2.8573,-2.8625,-2.8674,-2.8697,-2.8696,-2.8697,-2.8709,-2.8707,-2.8699,-2.8705,-2.8582,-2.8694,-2.8693,-2.8693,-2.8692,-2.8692,-2.8181,-2.8219,-2.826,-2.8311,-2.8342,-2.8378,-2.8417,-2.8441,-2.8486,-2.8541,-2.8548,-2.8605,-2.8645,-2.8712,-2.8737,-2.8782,-2.8771,-2.8788,-2.8793,-2.8797,-2.88,-2.8692,-2.8791,-2.8791,-2.8791,-2.879,-2.879,0,-2.8272,-2.8298,-2.8345,-2.8399,-2.8439,-2.8436,-2.8478,-2.8512,-2.8563,-2.86,-2.8642,-2.8704,-2.8754,-2.8785,-2.8835,-2.8866,-2.8866,-2.8878,-2.8876,-2.8882,-2.8807,-2.8792,-2.8877,-2.8877,-2.8877,-2.8877,-2.8877,-2.8877,-2.8323,-2.8388,-2.8403,-2.8483,-2.8509,-2.8566,-2.8591,-2.8625,-2.8655,-2.8724,-2.8766,-2.8786,-2.8821,-2.8875,-2.892,-2.8928,-2.8947,-2.896,-2.8967,-2.8896,-2.8887,-2.8879,-2.8865,-2.8964,-2.8964,-2.9039,-2.9039,-2.904]}]]